Latest Conditions
At L.F.Wade Int. Airport
Recorded at 7:55 pm
Few Clouds
Temp.: 
28°C/83°F
Humidity: 
76%
Wind: 
SSW 10KT
or 12mph
UV Index: 
0
Island Observations
Observations
Monday, August 03, 2015

Observations are in local time and taken at least once an hour, or upon the start and end of specified events such as showers and thunderstorms.

Time Sky / Weather Wind Speed/Gusts Temp. R.H. Pressure
     knots (mph)  °C (°F)  %  mb / "Hg
 19:55 Few Clouds  SSW 10/0 (12/0) 28(83) 76 1023 / 30.21
 18:55 Few Clouds  SSW 9/0 (10/0) 29(84) 75 1023 / 30.20
 17:55 Few Clouds  SSW 9/0 (10/0) 30(85) 70 1022 / 30.19
 16:55 Few Clouds  SSW 9/0 (10/0) 30(86) 65 1023 / 30.20
 15:55 Partly Cloudy Showers SW 10/0 (12/0) 29(84) 68 1023 / 30.21
 15:20 Partly Cloudy Thunderstorm SSW 11/0 (13/0) 30(86) 72 1023 / 30.21
 14:55 Partly Cloudy  SSW 10/0 (12/0) 30(86) 71 1023 / 30.21
 13:55 Partly Cloudy Showers SSW 9/0 (10/0) 30(86) 71 1023 / 30.22
 12:55 Partly Cloudy  SSW 9/0 (10/0) 30(86) 75 1023 / 30.22
 11:55 Partly Cloudy  SSW 8/0 (9/0) 30(85) 75 1023 / 30.21
 10:55 Few Clouds  SSW 9/0 (10/0) 29(85) 75 1023 / 30.20
 09:55 Few Clouds  SSW 10/0 (12/0) 29(84) 76 1022 / 30.19
 08:55 Partly Cloudy  SSW 10/0 (12/0) 28(83) 77 1022 / 30.18
 07:55 Partly Cloudy  SSW 9/0 (10/0) 28(82) 80 1022 / 30.17
 06:55 Partly Cloudy  SSW 10/0 (12/0) 27(81) 79 1022 / 30.17
 05:55 Few Clouds Showers SSW 8/0 (9/0) 27(81) 82 1021 / 30.15
 04:55 Few Clouds Showers SSW 9/0 (10/0) 27(81) 80 1021 / 30.16
 03:55 Partly Cloudy  SSW 8/0 (9/0) 27(81) 81 1021 / 30.15
 02:55 Few Clouds  S 9/0 (10/0) 27(81) 78 1021 / 30.15
 01:55 Few Clouds  S 10/0 (12/0) 27(81) 79 1021 / 30.16
 00:55 Few Clouds  S 10/0 (12/0) 28(82) 77 1022 / 30.17
 23:55 Few Clouds  SSW 9/0 (10/0) 28(82) 79 1022 / 30.18
 22:55 Few Clouds  S 7/0 (8/0) 28(82) 78 1022 / 30.19
 21:55 Few Clouds  S 7/0 (8/0) 27(81) 78 1022 / 30.19
Observations from our AWOS sites are available here (password and username are both 'guest').